Location: North Bay Shore
(40.7362°N, 73.2626°W)
Time: 10:18:01
(UTC+00:00)

CSL-04 Rocket - Pass Details

Date: 29 October 2020
Orbit: 805 x 861 km, 98.9° (Epoch: 23 November)

Event Time Altitude Azimuth Distance (km) Brightness Sun altitude
Exits shadow 23:39:11 11° 153° (SSE) 2,450 5.8 -20.8°
Maximum altitude 23:44:33 65° 73° (ENE) 937 3.6 -21.8°
Drops below altitude 10° 23:50:01 10° 352° (N) 2,483 6.2 -22.8°
Sets 23:52:23 0° 350° (N) 3,415 7.0 -23.3°
